Dewpoint
2 -3 -3 -11 -13 -14 -12 -3 -5 -7 -9 -7 -4 1 3 5 2 -3 -2 -3 -5 -9 -12 -15 -9 2 -4 -12 -15 -11 -3 4 3 2 1 -2 -7 -8 -11 -14 -15 -11 -11
3 -1 -3 -3 -8 -5 -4 -4 -6 -9 -9 -9 -7 -5 1 3 -0 -7 -8 -5 -8 -11 -16 -18 -8 2 3 0 -3 -5 -7 0 1 -3 -4 -5 -7 -9 -11 -13 -11 -13 -11
3 3 1 -1 -3 -4 -4 -5 -5 -4 -5 -6 -4 -2 -3 3 1 -4 -3 -5 -9 -13 -18 -21 -22 -18 -8 -1 2 1 2 3 3 3 3 2 -2 -2 -4 -4 -2 -2 -3
3 1 -2 -2 -4 -4 -4 -5 -4 -1 -3 -4 -7 -5 -2 -2 -1 1 -1 -3 -5 -8 -14 -20 -20 -21 -23 -21 -3 3 3 -2 -8 -8 -6 -4 -4 -2 -5 -7 -5 -3 -1
2 -2 -4 -3 -4 -6 -7 -7 -3 -3 -4 -4 -3 -0 -0 -3 -4 -6 -6 -4 -3 -6 -11 -13 -12 -14 -22 -26 -25 -16 -10 -5 1 1 1 -4 -3 -1 -4 -1 -2 -2 -4
0 -2 -3 -4 -6 -7 -9 -8 -3 -2 -3 -2 -1 -1 -3 -3 -3 -5 -9 -9 -11 -10 -11 -10 -9 -8 -14 -20 -25 -24 -9 1 1 -1 -2 -4 -0 -2 -2 -3 -0 -1 0
-2 -3 -2 -4 -7 -8 -10 -7 -2 -1 -1 -1 -3 -2 -1 -1 -1 -1 -2 -3 -11 -15 -15 -6 -5 -5 -9 -20 -23 -25 -20 -3 -3 -5 -7 -10 -2 -2 -2 -1 -0 -0 0
-4 -3 -3 -6 -7 -9 -9 -6 -3 -0 -1 -3 -4 -4 -1 -1 -1 -1 -1 -2 -12 -13 -16 -14 -11 -3 -4 -16 -22 -25 -27 -21 -4 -9 -10 -2 -2 -2 -4 -2 -2 -2 -2
-3 -5 -4 -7 -7 -9 -11 -9 -7 -6 -5 -5 -7 -8 -3 -3 -2 -2 -4 -6 -6 -5 -9 -16 -15 -11 -8 -16 -20 -25 -27 -26 -22 -19 -11 -10 -5 -3 -4 -4 -6 -4 -3
0 -5 -5 -7 -7 -10 -10 -9 -8 -7 -8 -9 -3 -6 -3 -6 -4 -4 -4 -3 -3 -4 -6 -11 -17 -14 -8 -17 -20 -26 -27 -27 -28 -25 -22 -16 -12 -13 -15 -15 -12 -4 -5
2 -3 -4 -6 -7 -10 -10 -11 -10 -7 -10 -10 -8 -8 -4 -4 -5 -6 -3 -3 -4 -4 -6 -11 -13 -12 -10 -18 -23 -26 -27 -28 -28 -28 -28 -26 -27 -26 -24 -19 -19 -6 -5
2 -0 -2 -4 -7 -8 -11 -12 -11 -9 -9 -7 -9 -9 -6 -8 -5 -5 -6 -5 -6 -4 -6 -11 -16 -14 -11 -14 -20 -26 -27 -27 -28 -28 -28 -28 -28 -28 -28 -27 -24 -12 -6
3 0 -1 -3 -5 -9 -12 -12 -12 -9 -9 -11 -12 -13 -9 -12 -13 -8 -6 -6 -6 -5 -6 -7 -13 -15 -10 -17 -19 -26 -26 -26 -27 -27 -27 -27 -28 -27 -28 -28 -27 -23 -14
3 1 -1 -3 -6 -9 -11 -11 -12 -11 -11 -12 -15 -16 -17 -15 -9 -14 -6 -6 -4 -5 -6 -7 -10 -15 -14 -18 -23 -25 -21 -24 -26 -26 -26 -27 -27 -28 -29 -30 -30 -28 -24
3 2 -0 -3 -6 -8 -11 -11 -12 -13 -13 -13 -13 -15 -16 -11 -10 -8 -7 -7 -7 -5 -5 -5 -8 -14 -19 -20 -22 -23 -22 -24 -25 -25 -26 -27 -28 -31 -35 -37 -36 -34 -30
3 3 0 -2 -6 -8 -10 -11 -12 -13 -15 -15 -14 -17 -15 -12 -12 -11 -6 -7 -7 -7 -5 -6 -8 -12 -19 -21 -25 -20 -21 -24 -23 -25 -27 -29 -33 -36 -38 -39 -39 -38 -35
2 2 1 -1 -3 -5 -7 -11 -12 -14 -15 -18 -16 -17 -15 -9 -2 -12 -7 -7 -8 -6 -7 -8 -11 -14 -19 -19 -19 -19 -20 -22 -22 -24 -28 -33 -36 -39 -39 -40 -40 -39 -38
2 2 0 -0 -2 -3 -6 -8 -13 -14 -16 -14 -14 -11 -2 0 -5 -12 -13 -13 -10 -9 -9 -10 -12 -17 -17 -15 -16 -15 -14 -17 -21 -23 -32 -35 -35 -36 -36 -39 -40 -38 -38
2 1 0 0 -1 -3 -6 -8 -9 -13 -13 -7 -5 -0 -0 -1 -11 -9 -15 -16 -17 -10 -8 -10 -14 -14 -13 -17 -16 -15 -15 -13 -16 -22 -31 -26 -22 -25 -28 -38 -38 -39 -37
2 2 1 0 -1 -5 -8 -9 -7 -8 -4 -7 2 0 -1 -13 -12 -12 -14 -15 -17 -11 -10 -12 -12 -11 -13 -14 -12 -12 -11 -11 -13 -18 -27 -15 -15 -13 -26 -29 -34 -38 -37
2 2 1 0 -1 -5 -5 -8 -3 -2 -5 1 1 -1 -15 -16 -14 -13 -15 -17 -18 -14 -11 -12 -13 -12 -11 -14 -17 -13 -9 -10 -12 -14 -16 -13 -13 -11 -11 -22 -26 -36 -36
2 2 1 0 -0 -0 -1 -1 -1 -3 -0 0 1 -9 -15 -18 -14 -12 -14 -16 -19 -17 -13 -12 -12 -13 -14 -16 -15 -19 -20 -14 -14 -10 -15 -11 -12 -15 -18 -26 -26 -30 -35
2 2 1 -0 -0 -0 -0 -1 -2 -1 -0 0 -2 -16 -18 -18 -18 -15 -17 -18 -17 -14 -15 -14 -15 -15 -15 -19 -22 -24 -27 -25 -15 -13 -28 -15 -12 -14 -24 -30 -27 -23 -28
1 1 0 1 0 0 -1 -1 -1 -1 -1 -2 -13 -16 -19 -21 -21 -22 -22 -22 -20 -15 -14 -16 -16 -20 -21 -23 -24 -26 -30 -33 -26 -23 -32 -15 -13 -18 -25 -24 -19 -16 -18
1 0 -0 -0 -1 -1 -1 -1 -1 -2 -3 -10 -14 -16 -19 -21 -24 -24 -23 -23 -22 -20 -20 -20 -22 -22 -23 -23 -25 -27 -31 -27 -11 -15 -20 -34 -22 -23 -20 -14 -13 -13 -14
1 0 0 -0 -0 -0 -1 -1 -1 -2 -4 -9 -14 -18 -20 -22 -25 -24 -23 -23 -22 -22 -22 -23 -23 -23 -23 -24 -25 -28 -21 -15 -11 -11 -16 -20 -27 -23 -13 -11 -11 -12 -12
Wind_Speed
28 27 22 23 21 19 18 16 16 14 16 15 16 20 18 13 9 7 9 7 1 3 4 6 8 11 9 9 10 12 15 17 15 15 15 15 15 16 16 15 14 13 15
27 26 22 21 20 21 20 21 16 16 15 14 14 15 18 11 8 5 7 5 1 1 2 3 6 10 11 13 14 13 13 15 15 15 15 16 16 16 16 16 17 16 16
30 29 29 26 25 22 23 19 17 18 16 15 16 15 15 13 5 3 5 3 3 1 0 2 2 3 8 13 16 16 16 17 17 17 17 17 17 18 17 18 18 18 16
34 33 31 29 27 27 25 25 23 21 18 16 16 13 14 15 15 13 5 1 2 1 2 2 3 4 6 8 12 15 15 13 12 13 13 16 17 17 18 17 17 18 19
35 36 32 31 30 30 29 27 25 23 21 19 19 18 14 13 12 13 14 12 6 3 1 4 5 6 6 6 6 6 8 11 13 14 13 13 13 15 16 17 18 17 16
39 36 33 35 33 30 29 27 27 24 24 23 23 20 14 12 11 8 8 10 12 9 3 3 5 8 6 4 5 5 10 13 11 12 13 14 15 14 16 17 17 17 20
43 39 37 37 34 33 33 31 30 30 28 27 26 23 20 15 9 8 6 9 7 5 7 9 3 5 9 6 7 7 6 9 11 11 11 13 14 15 16 16 16 18 19
44 42 41 40 36 35 34 35 36 35 31 33 29 26 17 17 19 18 18 13 6 5 6 7 9 9 9 7 6 7 6 6 9 10 12 14 14 15 16 17 17 18 19
44 44 44 41 38 39 39 39 38 38 38 34 27 16 12 10 22 19 15 10 9 8 5 5 6 8 7 7 8 7 7 6 7 8 9 10 11 14 15 17 18 18 19
44 47 47 43 41 42 40 39 40 38 37 37 31 22 13 15 13 12 16 14 13 12 7 6 4 5 5 6 3 6 8 8 8 10 11 11 12 13 14 14 16 20 20
45 47 48 46 43 44 42 40 41 39 36 37 37 34 20 16 13 17 24 20 15 11 13 11 7 5 7 8 5 4 6 7 9 9 10 11 13 13 15 16 16 18 19
46 45 48 47 45 46 43 41 40 41 39 35 38 32 29 27 24 18 17 22 20 15 12 9 11 8 8 7 4 3 5 5 6 8 9 11 12 13 14 17 18 17 18
47 48 50 48 47 45 44 43 43 42 40 38 35 34 32 27 21 20 14 23 25 19 13 11 8 7 6 8 5 3 4 4 6 7 8 10 12 14 16 17 17 17 17
48 48 49 48 48 47 45 44 43 42 39 34 33 28 26 27 23 26 20 27 28 23 17 14 11 10 13 8 6 6 3 3 5 6 8 10 11 15 16 17 17 16 17
46 45 48 50 47 48 48 46 44 42 41 36 32 29 29 29 27 27 19 27 29 21 23 21 14 13 11 7 5 7 4 4 6 6 7 10 12 15 16 16 17 16 15
42 43 47 48 50 51 48 46 45 43 41 37 33 31 30 27 24 24 28 29 24 21 24 22 18 13 12 7 7 7 4 5 5 5 7 10 12 14 16 15 15 15 14
39 41 44 48 48 46 46 47 44 42 40 37 35 30 26 20 24 29 34 32 31 23 26 25 21 13 13 9 7 5 4 6 4 6 8 11 12 12 13 14 14 14 14
42 41 42 44 45 44 43 40 43 44 40 36 30 29 24 25 27 29 31 32 31 18 22 25 19 16 14 12 7 5 2 6 10 7 9 11 11 10 10 12 14 14 14
41 39 40 41 42 42 41 38 34 34 32 29 31 29 26 30 29 27 27 27 27 21 19 20 19 17 13 12 10 6 6 9 9 8 8 10 11 15 12 12 14 14 14
42 41 40 40 40 40 39 34 33 31 29 33 26 29 32 31 31 29 28 29 27 26 23 21 19 17 13 14 10 7 6 5 8 8 10 11 12 14 15 15 15 15 15
40 39 38 38 37 38 36 37 39 39 40 32 26 29 30 33 33 30 29 29 26 29 26 23 22 20 16 14 17 18 12 9 11 7 7 8 10 8 14 17 14 15 15
36 35 36 37 40 40 45 48 44 42 36 30 31 31 31 34 34 32 31 28 27 30 31 26 23 23 22 18 14 15 17 12 10 8 7 12 8 8 14 15 11 15 15
33 33 35 39 42 43 44 47 43 36 33 37 33 35 36 35 34 35 33 29 27 26 25 25 23 21 19 17 13 12 11 13 16 10 7 10 8 10 11 12 9 14 15
33 34 40 42 43 43 42 43 39 38 39 33 33 34 35 34 34 33 30 29 28 26 23 20 18 16 15 15 14 11 10 10 12 9 8 10 10 11 11 10 8 14 16
30 36 42 44 46 44 43 42 42 42 34 32 34 34 32 31 32 32 30 31 30 28 26 22 18 16 15 13 12 12 11 11 6 8 5 6 8 7 6 5 8 11 16
28 34 39 42 44 44 44 45 45 42 39 37 34 33 32 29 31 29 31 32 31 29 26 23 20 17 16 14 13 12 13 12 14 12 7 7 6 6 1 7 8 11 15
Wind_Direction
199 206 203 195 188 187 178 169 193 180 174 170 162 157 157 184 228 140 187 192 206 14 29 40 44 64 42 32 33 38 47 49 43 36 31 21 12 3 356 351 342 331 319
202 202 192 194 183 188 179 192 186 175 175 171 165 164 171 191 211 140 155 183 228 349 39 51 93 79 68 47 50 44 40 41 33 26 19 16 12 4 1 356 348 343 336
200 194 192 193 185 192 186 185 179 179 182 170 167 169 165 164 185 142 134 119 96 36 109 47 63 63 64 65 60 53 52 51 44 42 38 33 18 20 11 10 6 359 355
202 197 196 193 194 190 188 189 183 185 178 177 167 162 166 174 168 146 125 98 5 40 31 26 32 8 22 36 66 62 56 32 18 14 14 17 17 12 9 6 6 3 360
203 201 198 196 196 196 194 192 185 188 182 174 160 171 180 176 162 178 180 178 162 282 324 11 41 12 4 5 16 29 27 33 47 47 39 18 18 15 9 10 7 0 358
204 202 199 200 203 198 194 186 185 187 184 174 172 174 166 153 180 176 170 184 179 196 273 38 358 349 3 19 24 32 53 58 50 36 23 19 29 21 22 19 14 14 8
205 198 202 206 204 199 198 189 187 187 184 181 175 158 155 163 155 162 171 209 186 177 171 154 225 7 332 8 10 13 33 51 43 23 10 1 22 23 23 29 22 21 16
206 198 205 211 204 200 199 192 193 186 188 191 175 162 153 172 172 173 191 209 196 173 174 179 165 141 270 313 355 15 7 16 48 26 14 35 27 28 26 23 22 20 15
208 202 208 213 206 203 204 200 200 201 193 194 196 171 163 184 180 196 200 191 171 189 220 189 173 164 236 300 345 348 356 353 345 351 10 17 20 25 20 15 8 9 9
209 204 208 213 207 207 208 203 203 203 202 190 193 198 194 195 167 163 181 189 162 201 190 214 200 174 229 278 332 350 337 348 338 343 353 4 7 7 360 0 6 7 8
213 206 207 210 208 209 209 206 204 202 205 199 199 200 195 185 161 168 168 186 187 202 211 210 181 220 208 276 326 359 335 340 346 339 344 350 350 352 352 353 358 9 4
212 208 208 210 209 210 209 208 205 204 205 205 205 205 201 190 178 173 169 182 173 190 224 205 192 204 230 263 299 329 323 338 343 339 342 341 339 346 346 345 347 353 7
213 210 210 209 210 210 209 209 206 204 206 208 204 205 208 206 199 182 186 173 173 179 188 219 209 205 210 258 298 314 322 329 342 335 332 335 343 345 343 342 341 344 352
218 214 212 212 211 211 210 208 206 207 207 205 203 198 197 187 184 184 189 169 163 176 198 209 209 210 214 241 262 285 296 310 327 322 328 333 344 337 338 339 340 343 345
221 220 216 214 212 211 209 209 206 204 203 203 199 196 193 194 190 178 170 184 188 168 186 200 206 211 225 220 230 255 319 324 307 313 329 335 337 334 341 343 341 341 346
219 223 223 218 213 212 209 207 204 203 200 199 196 193 198 198 191 205 186 187 192 202 179 204 213 215 209 201 190 235 261 300 288 304 338 334 335 338 341 345 344 345 349
217 225 221 217 213 212 210 206 202 197 195 195 192 194 197 205 226 208 196 192 192 199 190 177 208 206 193 208 198 220 249 271 299 337 332 332 332 341 344 346 353 354 351
221 219 220 219 217 214 211 206 198 196 191 189 188 191 205 215 222 207 200 198 199 194 193 180 199 193 186 195 201 181 96 275 299 315 327 334 324 337 345 353 2 2 1
215 215 221 220 216 208 202 198 193 191 193 198 196 204 224 225 209 198 196 191 189 183 192 207 188 182 194 191 171 198 193 225 290 313 320 339 351 346 359 10 5 3 6
224 224 224 224 218 210 207 204 199 194 209 205 208 224 220 206 196 199 195 195 190 180 188 193 180 181 193 176 173 202 188 229 255 313 331 326 349 345 346 7 355 358 1
225 228 229 223 215 207 207 201 201 204 203 212 216 216 207 199 199 201 200 198 191 183 182 188 181 177 195 187 190 190 174 239 265 277 299 262 313 336 325 331 334 349 358
226 229 230 219 212 210 210 209 206 203 208 213 218 212 202 201 201 199 198 197 192 187 188 192 188 188 193 198 195 193 198 215 260 263 233 237 245 253 283 306 319 341 349
225 225 221 215 215 215 217 211 203 212 217 227 213 210 206 205 204 200 196 194 192 192 196 201 198 201 195 207 204 211 204 204 226 242 244 242 262 296 300 299 298 339 344
226 224 217 216 217 220 219 209 213 212 213 212 209 211 210 207 200 198 195 196 193 193 196 201 203 204 203 204 208 214 211 210 215 221 218 220 270 291 302 293 296 338 348
228 225 224 221 218 221 219 216 214 215 207 206 210 210 209 206 200 194 194 196 195 194 196 199 198 198 199 201 210 212 203 213 224 240 221 251 269 300 308 315 319 331 343
237 234 231 231 228 226 222 219 219 212 203 203 206 209 206 203 200 199 201 201 200 200 199 194 195 198 198 205 213 216 212 193 202 235 234 245 275 296 265 284 308 323 331
Height
1503 1505 1510 1514 1517 1519 1522 1525 1528 1531 1534 1536 1539 1543 1543 1541 1540 1544 1544 1546 1547 1547 1547 1546 1547 1546 1545 1544 1543 1543 1543 1544 1543 1542 1540 1538 1537 1535 1534 1533 1532 1532 1532
1500 1504 1507 1510 1514 1517 1520 1521 1526 1528 1531 1533 1536 1539 1540 1541 1541 1543 1545 1546 1547 1547 1547 1546 1546 1547 1547 1545 1544 1542 1543 1544 1543 1540 1540 1538 1538 1536 1535 1533 1532 1529 1529
1496 1500 1504 1507 1510 1514 1517 1519 1522 1525 1529 1531 1533 1537 1538 1541 1539 1541 1544 1545 1546 1546 1547 1547 1545 1545 1545 1546 1546 1544 1542 1543 1542 1542 1541 1539 1537 1536 1534 1532 1532 1531 1527
1491 1495 1499 1503 1505 1509 1512 1515 1518 1522 1525 1528 1532 1534 1536 1537 1539 1540 1541 1541 1545 1546 1546 1547 1546 1545 1544 1543 1544 1545 1543 1541 1541 1540 1539 1538 1537 1537 1535 1532 1531 1529 1529
1487 1490 1494 1498 1501 1505 1508 1512 1515 1519 1520 1525 1529 1532 1535 1537 1537 1538 1541 1542 1542 1542 1544 1546 1545 1545 1543 1542 1542 1542 1542 1542 1542 1541 1539 1536 1536 1535 1532 1533 1532 1529 1525
1480 1487 1490 1492 1496 1501 1504 1509 1512 1516 1518 1521 1525 1529 1533 1535 1534 1535 1538 1541 1542 1543 1542 1544 1544 1545 1543 1542 1541 1542 1541 1543 1542 1540 1537 1536 1537 1535 1530 1529 1531 1528 1528
1473 1480 1484 1486 1492 1496 1499 1504 1508 1511 1516 1518 1520 1526 1532 1536 1536 1536 1537 1538 1537 1541 1544 1543 1543 1544 1542 1541 1540 1541 1540 1543 1540 1538 1537 1536 1538 1534 1531 1527 1529 1524 1526
1465 1473 1477 1480 1486 1491 1495 1499 1502 1507 1512 1513 1515 1521 1527 1533 1533 1534 1535 1538 1536 1538 1541 1542 1544 1545 1541 1541 1539 1539 1539 1539 1538 1537 1536 1537 1536 1535 1531 1529 1528 1523 1522
1456 1464 1468 1473 1480 1483 1487 1491 1495 1499 1501 1510 1513 1513 1520 1521 1527 1532 1533 1534 1535 1538 1539 1541 1541 1544 1542 1538 1539 1540 1539 1538 1536 1536 1535 1534 1534 1533 1529 1527 1524 1523 1521
1448 1454 1459 1466 1472 1475 1481 1486 1490 1494 1497 1500 1508 1510 1510 1509 1517 1527 1532 1532 1532 1536 1537 1537 1539 1540 1538 1537 1537 1538 1539 1536 1536 1535 1535 1535 1533 1530 1528 1523 1520 1524 1520
1444 1448 1451 1456 1464 1468 1473 1479 1484 1488 1492 1494 1497 1501 1507 1509 1510 1515 1525 1526 1530 1534 1536 1535 1537 1538 1536 1534 1534 1534 1536 1536 1536 1536 1535 1535 1533 1530 1529 1527 1519 1522 1521
1438 1443 1446 1450 1455 1460 1466 1471 1477 1481 1485 1490 1492 1496 1501 1501 1505 1510 1512 1518 1526 1531 1532 1534 1533 1533 1534 1533 1532 1533 1533 1533 1533 1534 1534 1532 1532 1528 1523 1524 1523 1522 1519
1430 1435 1439 1444 1448 1453 1458 1463 1469 1475 1479 1483 1488 1489 1496 1500 1503 1508 1507 1512 1520 1527 1531 1534 1533 1533 1533 1531 1531 1532 1531 1530 1531 1532 1532 1531 1531 1527 1526 1523 1521 1520 1516
1423 1429 1434 1437 1442 1446 1452 1455 1461 1468 1474 1479 1484 1485 1490 1496 1498 1502 1504 1508 1515 1523 1527 1528 1529 1532 1530 1528 1530 1530 1529 1527 1529 1529 1530 1529 1526 1528 1524 1522 1520 1517 1514
1418 1425 1430 1432 1437 1438 1442 1448 1451 1459 1467 1472 1477 1482 1486 1489 1493 1499 1501 1505 1506 1513 1522 1523 1523 1525 1527 1527 1526 1526 1526 1526 1528 1527 1526 1528 1525 1525 1520 1519 1519 1515 1512
1411 1418 1424 1428 1430 1430 1435 1440 1444 1451 1458 1465 1471 1474 1481 1486 1487 1494 1499 1500 1502 1506 1510 1513 1516 1521 1523 1524 1526 1524 1524 1525 1526 1524 1524 1525 1524 1523 1521 1516 1516 1514 1511
1406 1410 1419 1423 1426 1429 1432 1432 1438 1443 1451 1459 1465 1469 1477 1481 1483 1490 1494 1498 1500 1502 1507 1511 1514 1517 1521 1522 1524 1523 1521 1523 1524 1522 1522 1522 1522 1518 1516 1518 1515 1513 1510
1400 1407 1414 1419 1423 1427 1431 1439 1437 1437 1442 1451 1458 1467 1471 1473 1479 1487 1490 1493 1498 1498 1501 1504 1510 1513 1516 1518 1522 1521 1521 1521 1521 1521 1522 1520 1524 1517 1514 1514 1514 1513 1509
1398 1403 1407 1413 1419 1427 1431 1433 1440 1445 1454 1452 1454 1460 1462 1472 1478 1484 1487 1490 1495 1496 1500 1501 1505 1511 1514 1516 1518 1520 1524 1525 1522 1520 1520 1520 1521 1518 1514 1511 1513 1512 1509
1392 1398 1403 1407 1413 1421 1427 1429 1437 1441 1450 1454 1453 1454 1463 1468 1473 1479 1484 1487 1493 1492 1495 1499 1502 1506 1511 1514 1514 1515 1517 1521 1518 1522 1520 1521 1519 1516 1509 1513 1513 1512 1509
1389 1394 1399 1404 1409 1417 1422 1427 1428 1435 1440 1450 1449 1453 1458 1462 1468 1474 1479 1484 1489 1494 1493 1494 1497 1501 1505 1509 1510 1516 1516 1516 1518 1520 1522 1520 1520 1517 1512 1512 1513 1511 1508
1386 1393 1396 1399 1403 1408 1411 1416 1423 1430 1434 1439 1444 1450 1456 1458 1466 1471 1474 1479 1482 1487 1490 1491 1494 1496 1500 1499 1505 1508 1511 1510 1512 1516 1520 1517 1517 1513 1511 1512 1513 1510 1507
1379 1382 1388 1395 1400 1405 1407 1411 1419 1426 1431 1436 1439 1442 1448 1453 1461 1466 1470 1475 1479 1488 1487 1488 1488 1494 1497 1498 1499 1502 1504 1507 1507 1512 1514 1515 1512 1510 1511 1509 1511 1510 1506
1375 1381 1384 1387 1392 1397 1404 1410 1418 1420 1423 1429 1436 1439 1444 1450 1456 1462 1466 1471 1475 1481 1484 1486 1489 1491 1493 1495 1495 1498 1500 1503 1504 1507 1509 1511 1509 1507 1508 1508 1509 1508 1505
1371 1376 1382 1385 1389 1393 1397 1403 1409 1414 1417 1424 1432 1437 1441 1447 1453 1456 1460 1467 1470 1472 1476 1483 1485 1488 1490 1492 1495 1496 1495 1499 1499 1501 1502 1506 1504 1505 1506 1507 1508 1507 1504
1369 1375 1378 1381 1384 1388 1391 1395 1400 1405 1410 1419 1426 1430 1437 1443 1451 1455 1458 1461 1465 1467 1471 1474 1479 1484 1485 1490 1492 1492 1495 1497 1497 1498 1498 1501 1501 1503 1504 1506 1507 1505 1503